LB9CG Weather Reports


Display with metric or nautical units.
time (UTC)temp
F
wind
direction
speed
MPH
gust
MPH
rain 1hr
in
rain 24hr
in
rain mn
in
humidity
%
barometer
mb
20260903050036 50 0.0 0.0 0.05 0.51 0.42 98 999.5
20260903045100 50 0.0 0.0 0.05 0.53 0.42 98 999.5
20260903044204 50 0.0 0.0 0.04 0.52 0.41 97 999.4
20260903043036 50 187 1.0 2.0 0.04 0.52 0.41 97 999.6
20260903042100 50 207 1.0 1.0 0.03 0.51 0.40 97 999.8
20260903041123 50 182 0.0 1.0 0.01 0.49 0.38 97 999.7
20260903040036 50 0.0 0.0 0.13 0.48 0.37 98 999.8
20260903035059 50 294 0.0 1.0 0.12 0.47 0.36 98 999.9
20260903034143 50 0.0 0.0 0.11 0.46 0.35 98 1000.1
20260903033035 50 0.0 0.0 0.09 0.44 0.33 98 1000.0
20260903032059 50 0.0 0.0 0.07 0.42 0.31 98 1000.2
20260903031144 50 144 0.0 1.0 0.03 0.38 0.27 98 1000.1
20260903030035 50 160 1.0 4.0 0.11 0.35 0.24 98 1000.1
20260903025059 50 0.0 0.0 0.08 0.32 0.21 98 1000.5
20260903024203 50 0.0 0.0 0.06 0.30 0.19 98 1000.6
20260903023036 50 0.0 0.0 0.04 0.28 0.17 98 1000.7
20260903022059 50 246 0.0 1.0 0.02 0.26 0.15 97 1000.7
20260903021123 50 0.0 0.0 0.01 0.25 0.14 97 1000.8
20260903020036 50 0.0 0.0 0.08 0.23 0.12 97 1000.9
20260903015059 50 0.0 0.0 0.07 0.22 0.11 96 1000.9
20260903014124 50 0.0 0.0 0.05 0.20 0.09 95 1000.8
20260903013035 50 0.0 0.0 0.04 0.19 0.08 95 1001.1
20260903012059 50 0.0 0.0 0.03 0.18 0.07 96 1000.9
20260903011124 50 0.0 0.0 0.01 0.16 0.05 96 1001.0
20260903010056 50 0.0 0.0 0.04 0.15 0.04 96 1001.1
20260903005100 50 0.0 0.0 0.02 0.13 0.02 95 1001.0
20260903004144 50 0.0 0.0 0.01 0.12 0.01 95 1001.1
20260903003035 51 342 0.0 2.0 0.01 0.12 0.01 93 1001.0
20260903002059 51 334 0.0 1.0 0.01 0.12 0.01 93 1001.1
20260903001123 52 270 1.0 3.0 0.01 0.12 0.01 92 1001.1
20260903000035 51 251 1.0 1.0 0.00 0.11 0.00 93 1001.1
20260902235059 51 0.0 0.0 0.00 0.11 0.00 95 1001.0
20260902234124 51 0.0 0.0 0.00 0.11 0.00 96 1000.9
20260902233035 51 0.0 0.0 0.00 0.11 0.00 97 1001.0
20260902232059 50 0.0 0.0 0.00 0.11 0.00 98 1001.0
20260902231203 50 0.0 0.0 0.00 0.11 0.00 98 1000.9
20260902230035 50 0.0 0.0 0.00 0.11 0.11 98 1000.9
20260902225121 50 0.0 0.0 0.00 0.11 0.11 98 1000.9
20260902224124 49 0.0 0.0 0.00 0.11 0.11 97 1001.2
20260902223037 49 0.0 0.0 0.00 0.11 0.11 97 1000.9
20260902222101 49 0.0 0.0 0.00 0.11 0.11 98 1001.1
20260902221125 49 0.0 0.0 0.00 0.11 0.11 98 1000.9
20260902220037 49 0.0 0.0 0.00 0.11 0.11 98 1001.0
20260902215101 49 0.0 0.0 0.00 0.11 0.11 98 1001.0
20260902214125 49 0.0 0.0 0.00 0.11 0.11 98 1001.2
20260902213036 49 0.0 0.0 0.00 0.11 0.11 98 1001.2
20260902212120 49 0.0 0.0 0.00 0.11 0.11 98 1001.1
20260902211144 49 0.0 0.0 0.00 0.11 0.11 97 1001.1
20260902210036 50 0.0 0.0 0.00 0.11 0.11 97 1001.2
20260902205101 50 0.0 0.0 0.00 0.11 0.11 96 1001.0
20260902204124 51 0.0 0.0 0.00 0.11 0.11 96 1001.4
20260902203036 51 0.0 0.0 0.00 0.11 0.11 96 1001.4
20260902202101 51 0.0 0.0 0.00 0.11 0.11 96 1001.4
20260902201125 51 0.0 0.0 0.00 0.11 0.11 95 1001.4
20260902200036 52 0.0 0.0 0.00 0.11 0.11 94 1001.5
20260902195120 52 0.0 0.0 0.00 0.11 0.11 93 1001.4
20260902194124 52 0.0 0.0 0.00 0.11 0.11 93 1001.5
20260902193036 52 0.0 0.0 0.00 0.11 0.11 94 1001.5
20260902192141 52 0.0 0.0 0.00 0.11 0.11 93 1001.4
20260902191123 52 0.0 0.0 0.00 0.11 0.11 92 1001.3
20260902190036 53 0.0 0.0 0.00 0.11 0.11 92 1001.3
20260902185100 53 300 0.0 1.0 0.00 0.11 0.11 92 1001.3
20260902184124 53 0.0 0.0 0.00 0.11 0.11 93 1001.3
20260902183035 53 0.0 0.0 0.00 0.11 0.11 93 1001.5
20260902182059 53 276 0.0 1.0 0.00 0.11 0.11 92 1001.2
20260902181124 53 18 0.0 2.0 0.00 0.11 0.11 92 1001.2
20260902180035 53 318 0.0 2.0 0.00 0.11 0.11 91 1001.2
20260902175059 54 26 1.0 2.0 0.00 0.11 0.11 90 1001.2
20260902174123 54 320 1.0 3.0 0.00 0.11 0.11 90 1001.2
20260902173035 54 282 1.0 2.0 0.00 0.11 0.11 89 1001.4
20260902172059 54 324 1.0 2.0 0.00 0.11 0.11 87 1001.3
20260902171124 55 0.0 0.0 0.00 0.11 0.11 85 1001.4
20260902170035 55 0.0 0.0 0.00 0.11 0.11 84 1001.3
20260902165100 56 0.0 0.0 0.00 0.11 0.11 82 1001.4
20260902164144 57 0.0 0.0 0.00 0.11 0.11 80 1001.4
20260902163035 57 0.0 0.0 0.00 0.11 0.11 80 1001.3
20260902162059 59 0.0 0.0 0.00 0.11 0.11 73 1001.4
20260902161123 59 0.0 0.0 0.00 0.11 0.11 73 1001.4
20260902160036 58 0.0 0.0 0.00 0.11 0.11 80 1001.7
20260902155100 57 0.0 0.0 0.00 0.11 0.11 80 1001.7
20260902154124 56 0.0 0.0 0.00 0.11 0.11 82 1001.8
20260902153035 56 0.0 0.0 0.00 0.11 0.11 83 1001.6
20260902152059 57 0.0 0.0 0.00 0.11 0.11 81 1001.7
20260902151124 57 0.0 0.0 0.00 0.11 0.11 81 1001.7
20260902150036 57 0.0 0.0 0.00 0.11 0.11 80 1001.7
20260902145100 58 354 1.0 3.0 0.00 0.11 0.11 75 1001.7
20260902144123 58 306 1.0 2.0 0.00 0.11 0.11 78 1001.8
20260902143035 59 3 0.0 1.0 0.00 0.11 0.11 72 1001.9
20260902142059 58 162 2.0 2.0 0.00 0.11 0.11 78 1002.1
20260902141124 58 234 1.0 2.0 0.00 0.11 0.11 79 1002.0
20260902140036 57 156 0.0 2.0 0.00 0.11 0.11 84 1001.9
20260902135120 57 166 1.0 1.0 0.00 0.11 0.11 84 1002.3
20260902134124 56 0.0 0.0 0.00 0.11 0.11 85 1002.2
20260902133036 56 0.0 0.0 0.00 0.11 0.11 85 1002.1
20260902132100 56 152 1.0 2.0 0.00 0.11 0.11 85 1002.1
20260902131123 56 146 2.0 2.0 0.00 0.11 0.11 85 1002.1
20260902130035 56 133 1.0 2.0 0.00 0.11 0.11 85 1002.2
20260902125100 56 137 2.0 2.0 0.00 0.11 0.11 87 1002.4
20260902124123 56 147 1.0 2.0 0.00 0.11 0.11 88 1002.3
20260902123115 56 144 1.0 2.0 0.00 0.11 0.11 88 1002.3
20260902122100 56 168 0.0 2.0 0.00 0.11 0.11 87 1002.4
20260902121203 55 0.0 0.0 0.00 0.11 0.11 91 1002.4
20260902120035 55 139 3.0 4.0 0.00 0.11 0.11 89 1002.3
20260902115059 55 162 1.0 3.0 0.00 0.11 0.11 89 1002.4
20260902114123 55 169 1.0 1.0 0.00 0.11 0.11 91 1002.3
20260902113036 55 148 2.0 3.0 0.00 0.11 0.11 91 1002.4
20260902112059 55 157 1.0 3.0 0.00 0.11 0.11 91 1002.4
20260902111123 55 181 1.0 3.0 0.00 0.11 0.11 92 1002.5
20260902110035 55 158 1.0 2.0 0.02 0.11 0.11 91 1002.5
20260902105102 54 0.0 0.0 0.02 0.11 0.11 92 1002.4
20260902104126 54 180 0.0 1.0 0.02 0.11 0.11 94 1002.5
20260902103038 53 0.0 0.0 0.01 0.10 0.10 93 1002.1
20260902102102 53 129 3.0 3.0 0.00 0.09 0.09 93 1002.5
20260902101126 53 198 0.0 2.0 0.00 0.09 0.09 93 1002.6
20260902100038 53 0.0 0.0 0.00 0.09 0.09 92 1002.2
20260902095122 53 0.0 0.0 0.00 0.09 0.09 92 1002.0
20260902094126 53 106 2.0 4.0 0.00 0.09 0.09 90 1002.1
20260902093038 53 155 0.0 1.0 0.00 0.09 0.09 93 1002.3
20260902092102 53 188 0.0 1.0 0.00 0.09 0.09 92 1002.4
20260902091126 53 209 0.0 1.0 0.00 0.09 0.09 91 1002.2
20260902090038 53 0.0 0.0 0.00 0.09 0.09 91 1002.3
20260902085122 53 0.0 0.0 0.00 0.09 0.09 90 1002.1
20260902084126 53 204 0.0 1.0 0.00 0.09 0.09 89 1001.8
20260902083038 53 276 0.0 1.0 0.00 0.09 0.09 89 1002.0
20260902082102 53 252 0.0 1.0 0.00 0.09 0.09 91 1002.0
20260902081125 54 0.0 0.0 0.00 0.09 0.09 94 1001.9
20260902080038 53 0.0 0.0 0.01 0.09 0.09 94 1001.7
20260902075122 54 0.0 0.0 0.01 0.09 0.09 94 1001.6
20260902074125 53 0.0 0.0 0.00 0.08 0.08 92 1001.6
20260902073038 53 0.0 0.0 0.00 0.08 0.08 93 1001.5
20260902072102 52 0.0 0.0 0.00 0.08 0.08 94 1001.3
20260902071126 53 0.0 0.0 0.00 0.08 0.08 95 1001.2
20260902070038 53 0.0 0.0 0.00 0.08 0.08 95 1001.4
20260902065103 52 0.0 0.0 0.00 0.08 0.08 95 1001.4
20260902064125 52 0.0 0.0 0.00 0.08 0.08 93 1001.3
20260902063037 51 0.0 0.0 0.00 0.08 0.08 94 1001.3
20260902062101 51 0.0 0.0 0.00 0.08 0.08 92 1001.1
20260902061125 50 0.0 0.0 0.00 0.08 0.08 92 1001.2
20260902060037 50 0.0 0.0 0.06 0.08 0.08 95 1001.2
20260902055101 50 297 1.0 2.0 0.06 0.08 0.08 94 1001.0
20260902054125 50 0.0 0.0 0.05 0.07 0.07 94 1001.0
20260902053037 50 294 0.0 1.0 0.05 0.07 0.07 96 1000.8
20260902052121 50 248 1.0 2.0 0.05 0.07 0.07 95 1000.8
20260902051125 50 0.0 0.0 0.03 0.05 0.05 94 1000.9